Regional Weather Roundup
Issued by NWS

Home | Current Version | Previous Version | Text Only | Print | Product List | Glossary On
Versions: 1 2 3 4 5 6 7 8 9 10 11 12 13 14 15 16 17 18 19 20 21 22 23 24 25 26 27 28 29 30 31 32 33 34 35 36 37 38 39 40 41 42 43 44
000
ASUS45 KBOU 261807
RWRCO

WEATHER ROUNDUP FOR COLORADO
NATIONAL WEATHER SERVICE DENVER/BOULDER CO
1100 AM MST FRI DEC 26 2014

NOTE: "FAIR" INDICATES FEW OR NO CLOUDS BELOW 12000 FEET WITH NO
SIGNIFICANT WEATHER AND/OR OBSTRUCTIONS TO VISIBILITY.

COZ001>005-013-030-031-261900-
...NORTHWEST COLORADO...

CITY           SKY/WX    TMP DP  RH WIND       PRES   REMARKS
CRAIG          FLURRIES  16  11  80 W9        29.84R WCI   4
HAYDEN         CLOUDY    16   9  73 NW6       29.80F WCI   7
MEEKER         FLURRIES  17  11  77 W8        29.83R WCI   7
MOUNT WERNER   NOT AVBL
STEAMBOAT SPGS CLOUDY    16  11  80 CALM      29.78F
WALDEN         CLOUDY    12   7  79 N5        29.74F WCI   4
$$

COZ006>008-011-261900-
...WEST CENTRAL VALLEYS...

CITY           SKY/WX    TMP DP  RH WIND       PRES   REMARKS
GRAND JUNCTION LGT SNOW  25  23  92 N6        29.84S VSB 1   WCI  18
MONTROSE       CLOUDY    26  22  84 NE3       29.82S
EAGLE          PTSUNNY   25  21  86 W6        29.77F WCI  18
RIFLE          LGT SNOW  24  18  77 W10       29.82S WCI  14
DELTA          CLOUDY    31  25  78 SW5       29.82F WCI  26
NUCLA          LGT SNOW  27  21  80 CALM      29.84S
$$

COZ017>023-064>068-261900-
...SOUTHWEST COLORADO...

CITY           SKY/WX    TMP DP  RH WIND       PRES   REMARKS
DURANGO        LGT SNOW  24  21  88 SW12      29.73S FOG     WCI  13
CORTEZ         FAIR      27  20  75 S3        29.81R
PAGOSA SPRINGS FAIR      21  14  73 S7        29.72S WCI  13
TELLURIDE      CLOUDY    15   9  76 CALM      29.71S
WOLF CREEK PAS CLOUDY     5   3  92 MISG      29.59F
$$

COZ009-010-012-014-032>034-037-058>063-261900-
...CENTRAL COLORADO...

CITY           SKY/WX    TMP DP  RH WIND       PRES   REMARKS
ASPEN          FLURRIES  20  15  81 N6        29.70S WCI  12
BUENA VISTA    LGT SNOW  15  10  78 CALM      29.77F
COPPER MTN     CLOUDY    12   3  67 SE8       29.60S HAZE    WCI   1
BERTHOUD PASS  CLOUDY    -4  -9  77 MISG      29.60F
COTTONWOOD PAS SNOW      12   9  85 E3        29.70F VSB 1/2
GUNNISON       FAIR      12   9  85 W5        29.76S WCI   4
KREMMLING      LGT SNOW  19  12  73 CALM      29.76F
LEADVILLE      MIX PCPN   6   2  83 S14       29.66F FOG     WCI -11
MONARCH PASS   FOG        0  -4  85 MISG      29.68F VSB<1/4
SALIDA         CLOUDY    16  12  86 SE7       29.87F WCI   6
SUNLIGHT       LGT SNOW N/A N/A N/A CALM      29.66F
WILKERSON PASS LGT SNOW N/A N/A N/A CALM      29.68F
$$

COZ069>075-261900-
...SAN LUIS VALLEY/SANGRE DE CRISTO MOUNTAINS...

CITY           SKY/WX    TMP DP  RH WIND       PRES   REMARKS
ALAMOSA        PTSUNNY   22  14  71 E14       29.70F WCI   9
LA VETA PASS   NOT AVBL
SAGUACHE       LGT SNOW  21  18  86 E6        29.71F WCI  14
$$

COZ035-036-038>040-261900-
...NORTHERN COLORADO FRONT RANGE...

CITY           SKY/WX    TMP DP  RH WIND       PRES   REMARKS
DENVER INTL AP FLURRIES  19  14  81 N8        29.94F WCI   9
DMNS CITY PARK   N/A     20  16  83 NE6       29.96F WCI  13
AURORA         FLURRIES  16  16  98 N6        29.94F WCI   8
FRONT RANGE AP FLURRIES  19  18  93 CALM      29.95F
ERIE MUNI ARPT LGT SNOW  19  16  88 N3        29.98F
BOULDER MUN AP SNOW      21  18  86 CALM      29.96F VSB 1/2
CENTENNIAL     LGT SNOW  17  13  84 N7        29.92F FOG     WCI   8
BROOMFIELD     LGT SNOW  18  14  86 E5        29.95F WCI  11
FORT COLLINS   FAIR      19  14  79 E5        30.00F WCI  13
LONGMONT       LGT SNOW  27  17  67 NE3       30.00F
$$

COZ041-046-047-076>085-087-088-261900-
...PIKES PEAK/PALMER DIVIDE AND SOUTHERN FOOTHILLS...

CITY           SKY/WX    TMP DP  RH WIND       PRES   REMARKS
COLO. SPRINGS  PTSUNNY   20   8  60 N9        29.89F WCI   9
A. F. ACADEMY  FAIR      17   6  62 N14       29.86F WCI   3
ELLICOTT       NOT AVBL
FALCON         CLOUDY    17   9  69 N7        29.86S WCI   8
FORT CARSON    CLOUDY    22  10  61 N8        29.89F WCI  12
LIMON          CLOUDY    16  12  84 N14       29.93S WCI   2
MONUMENT HILL  LGT SNOW  16  12  86 NW8       29.84F WCI   5
TRINIDAD       LGT SNOW  21  15  78 N10       29.89F WCI  10
$$

COZ042>045-048>051-090-091-261900-
...NORTHEAST COLORADO...

CITY           SKY/WX    TMP DP  RH WIND       PRES   REMARKS
GREELEY ARPT   FAIR      18  10  73 NE7       30.00F WCI   8
AKRON          LGT SNOW  17  14  88 N9        29.97S VSB 1   WCI   6
BURLINGTON     LGT SNOW  21  16  81 N13       29.95F WCI   9
WRAY           LGT SNOW  23  20  89 N12       30.01F VSB 1   WCI  12
STERLING       LGT SNOW  23  19  86 N10       30.01F WCI  12
HOLYOKE        LGT SNOW  25  21  86 N14       30.01F WCI  13
FORT MORGAN    LGT SNOW  19  15  82 N6        30.00F WCI  11
$$

COZ086-089-092>099-261900-
...SOUTHEAST COLORADO...

CITY           SKY/WX    TMP DP  RH WIND       PRES   REMARKS
PUEBLO         CLOUDY    24  14  65 NE8       29.95F WCI  15
LA JUNTA       LGT SNOW  26  18  71 N10       29.97F WCI  16
LAMAR          LGT SNOW  27  21  78 N10       29.95F WCI  17
SPRINGFIELD      N/A     24  20  84 N16       29.90F WCI  11
$$


USA.gov is the U.S. government's official web portal to all federal, state and local government web resources and services.